Location: Gisborne
(38.6530°S, 178.0040°E)
Time: 17:30:04
(UTC+13:00)

SL-16 R/B - Pass Details

Date: 24 January 2019
Orbit: 842 x 846 km, 71.0° (Epoch: 15 February)

Event Time Altitude Azimuth Distance (km) Brightness Sun altitude
Rises 22:37:31 0° 312° (NW) 3,401 5.4 -20.7°
Reaches altitude 10° 22:40:13 10° 301° (WNW) 2,473 4.7 -21.1°
Maximum altitude 22:45:15 32° 239° (WSW) 1,427 4.0 -21.7°
Drops below altitude 10° 22:50:22 10° 176° (S) 2,495 5.3 -22.3°
Sets 22:53:06 0° 166° (SSE) 3,436 5.9 -22.7°
